Location: Morisset
(33.1080°S, 151.4871°E)
Time: 09:07:46
(UTC+00:00)

ASTRO E2 - Pass Details

Date: 29 October 2020
Orbit: 509 x 515 km, 31.4° (Epoch: 27 November)

Event Time Altitude Azimuth Distance (km) Brightness Sun altitude
Exits shadow 18:15:59 11° 305° (NW) 1,662 4.6 -8.9°
Maximum altitude 18:19:35 42° 15° (NNE) 742 3.4 -8.2°
Drops below altitude 10° 18:23:24 10° 87° (E) 1,747 6.6 -7.4°
Sets 18:25:43 0° 93° (E) 2,637 8.0 -7.0°
